EW7948 Weather Reports


Display with metric or nautical units.
time (UTC)temp
F
wind
direction
speed
MPH
gust
MPH
rain 1hr
in
rain 24hr
in
rain mn
in
humidity
%
barometer
mb
20260902133012 61 138 0.0 3.0 0.00 0.00 0.00 76 1007.6
20260902131556 61 117 2.0 4.0 0.00 0.00 0.00 83 1007.3
20260902130103 61 103 0.0 0.0 0.00 0.00 0.00 82 1007.3
20260902124552 62 103 0.0 0.0 0.00 0.00 0.00 82 1007.3
20260902123054 62 103 0.0 0.0 0.00 0.00 0.00 80 1007.4
20260902121550 63 103 0.0 0.0 0.00 0.00 0.00 76 1007.2
20260902120049 63 103 0.0 0.0 0.00 0.00 0.00 77 1007.0
20260902114550 63 127 0.0 1.0 0.00 0.00 0.00 73 1006.9
20260902113052 63 127 0.0 0.0 0.00 0.00 0.00 77 1007.0
20260902111547 63 127 0.0 0.0 0.00 0.00 0.00 79 1006.9
20260902110044 63 127 0.0 1.0 0.00 0.00 0.00 79 1006.9
20260902104544 64 127 0.0 0.0 0.00 0.00 0.00 78 1007.0
20260902103041 64 127 0.0 2.0 0.00 0.00 0.00 78 1007.0
20260902101539 65 132 0.0 0.0 0.00 0.00 0.00 76 1006.9
20260902100037 65 132 0.0 0.0 0.00 0.00 0.00 74 1007.0
20260902094536 65 132 0.0 1.0 0.00 0.00 0.00 73 1006.9
20260902093038 65 132 0.0 1.0 0.00 0.00 0.00 76 1007.0
20260902091538 66 132 0.0 0.0 0.00 0.00 0.00 76 1006.8
20260902090032 66 132 0.0 0.0 0.00 0.00 0.00 73 1007.0
20260902084532 66 132 0.0 0.0 0.00 0.00 0.00 73 1006.9
20260902083027 66 132 0.0 1.0 0.00 0.00 0.00 73 1007.1
20260902081525 67 132 0.0 1.0 0.00 0.00 0.00 72 1007.2
20260902080024 67 132 0.0 0.0 0.00 0.00 0.00 72 1007.2
20260902074520 68 132 0.0 1.0 0.00 0.00 0.00 71 1007.2
20260902073019 68 132 0.0 0.0 0.00 0.00 0.00 67 1007.2
20260902071519 69 132 0.0 0.0 0.00 0.00 0.00 68 1007.1
20260902070014 70 132 0.0 1.0 0.00 0.00 0.00 68 1007.3
20260902064510 71 128 0.0 1.0 0.00 0.00 0.00 62 1007.1
20260902063009 71 128 0.0 1.0 0.00 0.00 0.00 55 1007.0
20260902061514 71 128 0.0 2.0 0.00 0.00 0.00 54 1007.0
20260902060006 71 122 0.0 0.0 0.00 0.00 0.00 59 1007.1
20260902054504 71 122 0.0 1.0 0.00 0.00 0.00 59 1007.2
20260902053006 72 86 0.0 1.0 0.00 0.00 0.00 59 1007.1
20260902051504 72 86 0.0 1.0 0.00 0.00 0.00 55 1007.1
20260902050009 73 86 0.0 1.0 0.00 0.00 0.00 53 1007.0
20260902044503 73 86 0.0 0.0 0.00 0.00 0.00 54 1007.0
20260902043002 73 86 0.0 0.0 0.00 0.00 0.00 50 1007.0
20260902041502 74 86 0.0 0.0 0.00 0.00 0.00 50 1006.8
20260902040000 75 101 0.0 4.0 0.00 0.00 0.00 47 1006.8
20260902034603 76 189 0.0 1.0 0.00 0.00 0.00 46 1006.8
20260902033109 77 189 0.0 1.0 0.00 0.00 0.00 42 1006.7
20260902031537 78 189 0.0 1.0 0.00 0.00 0.00 40 1006.7
20260902030037 78 189 0.0 2.0 0.00 0.00 0.00 38 1006.6
20260902024543 79 202 5.0 9.0 0.00 0.00 0.00 37 1006.5
20260902023036 80 221 4.0 9.0 0.00 0.00 0.00 37 1006.4
20260902021535 80 200 4.0 8.0 0.00 0.00 0.00 35 1006.4
20260902020039 81 195 0.0 5.0 0.00 0.00 0.00 34 1006.4
20260902014535 82 215 3.0 10.0 0.00 0.00 0.00 33 1006.3
20260902013033 82 209 7.0 16.0 0.00 0.00 0.00 31 1006.3
20260902011533 83 194 6.0 14.0 0.00 0.00 0.00 30 1006.4
20260902010032 83 196 5.0 17.0 0.00 0.00 0.00 29 1006.4
20260902004531 84 232 8.0 16.0 0.00 0.00 0.00 29 1006.6
20260902003031 84 194 8.0 12.0 0.00 0.00 0.00 29 1006.7
20260902001532 85 234 5.0 12.0 0.00 0.00 0.00 28 1006.7
20260902000028 87 205 4.0 8.0 0.00 0.00 0.00 31 1006.7
20260901234526 86 145 4.0 11.0 0.00 0.00 0.00 30 1006.7
20260901233031 86 213 6.0 12.0 0.00 0.00 0.00 30 1006.9
20260901231522 86 202 1.0 5.0 0.00 0.00 0.00 33 1007.3
20260901230019 85 164 1.0 6.0 0.00 0.00 0.00 36 1007.5
20260901224534 85 120 0.0 9.0 0.00 0.00 0.00 38 1007.5
20260901223100 85 141 4.0 10.0 0.00 0.00 0.00 37 1007.6
20260901221611 85 210 1.0 5.0 0.00 0.00 0.00 39 1008.0
20260901220003 84 313 3.0 8.0 0.00 0.00 0.00 42 1008.3
20260901214525 85 273 3.0 8.0 0.00 0.00 0.00 38 1008.7
20260901213013 85 217 1.0 5.0 0.00 0.00 0.00 42 1009.0
20260901211526 84 220 2.0 7.0 0.00 0.00 0.00 41 1009.4
20260901210021 81 79 0.0 6.0 0.00 0.00 0.00 47 1009.8
20260901204526 83 248 2.0 7.0 0.00 0.00 0.00 46 1010.0
20260901203024 83 272 0.0 6.0 0.00 0.00 0.00 46 1010.3
20260901201520 82 177 2.0 6.0 0.00 0.00 0.00 47 1010.6
20260901200022 81 219 1.0 7.0 0.00 0.00 0.00 50 1011.0
20260901194515 79 222 2.0 8.0 0.00 0.00 0.00 51 1011.2
20260901193010 79 175 0.0 6.0 0.00 0.00 0.00 52 1011.6
20260901191505 79 186 3.0 7.0 0.00 0.00 0.00 53 1011.8
20260901190018 78 153 3.0 8.0 0.00 0.00 0.00 54 1012.1
20260901184510 78 164 4.0 10.0 0.00 0.00 0.00 56 1012.3
20260901183027 75 150 1.0 10.0 0.00 0.00 0.00 57 1012.6
20260901181505 76 142 0.0 7.0 0.00 0.00 0.00 56 1012.7
20260901180007 75 127 0.0 3.0 0.00 0.00 0.00 57 1013.0
20260901174504 74 131 1.0 10.0 0.00 0.00 0.00 58 1013.1
20260901173006 73 142 1.0 3.0 0.00 0.00 0.00 59 1013.1
20260901171502 74 194 0.0 4.0 0.00 0.00 0.00 59 1013.4
20260901170100 73 130 0.0 2.0 0.00 0.00 0.00 62 1013.4
20260901164559 71 130 0.0 3.0 0.00 0.00 0.00 64 1013.3
20260901163052 69 128 0.0 0.0 0.00 0.00 0.00 66 1013.4
20260901161549 68 128 0.0 0.0 0.00 0.00 0.00 68 1013.5
20260901160047 68 128 0.0 2.0 0.00 0.00 0.00 69 1013.5
20260901154543 66 128 0.0 2.0 0.00 0.00 0.00 74 1013.5
20260901153039 65 126 0.0 1.0 0.00 0.00 0.00 81 1013.4
20260901151541 64 124 0.0 1.0 0.00 0.00 0.00 83 1013.5
20260901150033 63 121 0.0 1.0 0.00 0.00 0.00 85 1013.6
20260901144532 62 121 0.0 0.0 0.00 0.00 0.00 86 1013.5
20260901143030 62 115 0.0 2.0 0.00 0.00 0.00 87 1013.4
20260901141557 61 113 0.0 2.0 0.00 0.00 0.00 88 1013.3
20260901140034 61 108 0.0 2.0 0.00 0.00 0.00 88 1013.1
20260901134535 60 107 0.0 1.0 0.00 0.00 0.00 88 1012.9